Location: *
(47.2969°N, 10.2930°E)
Time: 01:59:57
(UTC+00:00)

Cosmos 1455 - Pass Details

Date: 09 April 2020
Orbit: 498 x 524 km, 82.5° (Epoch: 03 June)

Event Time Altitude Azimuth Distance (km) Brightness Sun altitude
Exits shadow 21:30:55 25° 306° (NW) 1,080 4.3 -29.6°
Drops below altitude 10° 21:33:33 10° 346° (NNW) 1,759 5.7 -29.9°
Sets 21:35:58 0° 360° (N) 2,657 6.7 -30.1°
